Weather History for Big Piney, WY

Change the Weather History Date:

Wednesday, December 5, 2012

  Actual Average Record
Temperature  
Mean Temperature 35 °F 15 °F  
Max Temperature 44 °F 28 °F 44 °F (2012)
Min Temperature 25 °F 1 °F -33 °F (1992)
Degree Days  
Heating Degree Days 30 50  
Month to date heating degree days 177 248  
Since 1 July heating degree days 2342 3063  
Cooling Degree Days 0 0  
Month to date cooling degree days 0 0  
Year to date cooling degree days 67 35  
Moisture  
Dew Point 27 °F    
Average Humidity 77    
Maximum Humidity 92    
Minimum Humidity 62    
Precipitation  
Precipitation 0.00 in 0.01 in 0.50 in (1978)
Month to date precipitation 0.04 0.05  
Year to date precipitation 2.69 6.23  
Sea Level Pressure  
Sea Level Pressure 30.10 in    
Wind  
Wind Speed 5 mph (NNE)    
Max Wind Speed 18 mph    
Max Gust Speed 23 mph    
Visibility 10 miles    
Events      
T = Trace of Precipitation, MM = Missing Value Source: NWS Daily Summary

Daily Weather History Graph

Daily Weather History Graph

Search for Another Location

Airport:

Trip Planner

Search our weather history database for the weather conditions in past years. The results will help you decide how hot, cold, wet, or windy it might be!

Date:

Astronomy

Dec. 05, 2012 Rise Set
Actual Time 7:35 AM MST 4:47 PM MST
Civil Twilight 7:03 AM MST 5:18 PM MST
Nautical Twilight 6:28 AM MST 5:54 PM MST
Astronomical Twilight 5:54 AM MST 6:28 PM MST
Moon 11:47 PM MST (12/5) 11:54 AM MST (12/5)
Length of Visible Light 10h 15m
Length of Day
9h 11m
Waning Gibbous, 59% of the Moon is Illuminated
Dec 5
Waning Gibbous
Dec 6
Last Quarter
Dec 13
New
Dec 19
First Quarter
Dec 28
Full

Hourly Weather History & Observations

Time (MST) Temp. Windchill Dew Point Humidity Pressure Visibility Wind Dir Wind Speed Gust Speed Precip Events Conditions
12:53 AM 27.0 °F 23.0 °F 24.1 °F 89% 30.25 in 10.0 mi East 3.5 mph - N/A   Overcast
1:01 AM 26.6 °F - 24.8 °F 93% 30.20 in 10.0 mi Calm Calm - N/A   Overcast
1:36 AM 28.4 °F - 24.8 °F 86% 30.19 in 10.0 mi Calm Calm - N/A   Overcast
1:53 AM 26.1 °F 21.9 °F 24.1 °F 92% 30.23 in 10.0 mi SW 3.5 mph - N/A   Overcast
2:49 AM 28.4 °F - 24.8 °F 86% 30.18 in 10.0 mi Calm Calm - N/A   Overcast
2:53 AM 28.0 °F - 25.0 °F 88% 30.20 in 10.0 mi Calm Calm - N/A   Overcast
3:53 AM 28.0 °F - 25.0 °F 88% 30.17 in 10.0 mi Calm Calm - N/A   Overcast
4:02 AM 28.4 °F 24.6 °F 24.8 °F 86% 30.15 in 10.0 mi ENE 3.5 mph - N/A   Overcast
4:13 AM 28.4 °F 24.6 °F 26.6 °F 93% 30.14 in 10.0 mi East 3.5 mph - N/A   Overcast
4:53 AM 28.9 °F 25.2 °F 26.1 °F 89% 30.14 in 10.0 mi NNW 3.5 mph - N/A   Overcast
5:53 AM 28.9 °F 25.2 °F 27.0 °F 92% 30.14 in 10.0 mi NE 3.5 mph - N/A   Overcast
7:53 AM 28.9 °F 25.2 °F 27.0 °F 92% 30.12 in 10.0 mi ENE 3.5 mph - N/A   Overcast
8:53 AM 30.9 °F - 28.9 °F 92% 30.10 in 10.0 mi Calm Calm - N/A   Mostly Cloudy
9:53 AM 35.1 °F - 30.0 °F 82% 30.08 in 10.0 mi Calm Calm - N/A   Overcast
10:53 AM 37.0 °F - 30.9 °F 79% 30.05 in 10.0 mi Calm Calm - N/A   Overcast
11:53 AM 42.1 °F 38.4 °F 33.1 °F 70% 29.99 in 10.0 mi SW 5.8 mph - N/A   Partly Cloudy
12:53 PM 43.0 °F 38.2 °F 32.0 °F 65% 29.98 in 10.0 mi West 8.1 mph - N/A   Scattered Clouds
1:53 PM 43.0 °F 34.8 °F 30.9 °F 62% 29.99 in 10.0 mi West 18.4 mph - N/A   Scattered Clouds
2:53 PM 41.0 °F 34.7 °F 30.9 °F 67% 29.99 in 10.0 mi NW 10.4 mph - N/A   Overcast
3:53 PM 43.0 °F 36.4 °F 30.0 °F 60% 29.98 in 10.0 mi NNW 12.7 mph 18.4 mph N/A   Partly Cloudy
4:53 PM 36.0 °F 31.1 °F 28.9 °F 76% 30.03 in 10.0 mi East 5.8 mph - N/A   Mostly Cloudy
5:53 PM 34.0 °F 28.0 °F 28.9 °F 82% 30.05 in 10.0 mi ESE 6.9 mph - N/A   Mostly Cloudy
6:53 PM 30.0 °F 25.2 °F 26.1 °F 85% 30.09 in 10.0 mi North 4.6 mph - N/A   Scattered Clouds
7:53 PM 28.9 °F 21.1 °F 26.1 °F 89% 30.09 in 10.0 mi North 8.1 mph - N/A   Clear
8:53 PM 28.9 °F - 25.0 °F 85% 30.08 in 10.0 mi Calm Calm - N/A   Clear
9:53 PM 27.0 °F 19.5 °F 23.0 °F 85% 30.07 in 10.0 mi NNE 6.9 mph - N/A   Clear
10:53 PM 28.9 °F 18.6 °F 23.0 °F 78% 30.05 in 10.0 mi North 12.7 mph - N/A   Clear
11:53 PM 28.9 °F 19.8 °F 23.0 °F 78% 30.01 in 10.0 mi North 10.4 mph - N/A   Partly Cloudy